Wind_Speed
17 17 17 17 17 17 15 17 17 16 16 17 17 18 20 20 20 19 19 19 17 17 17 17 18 17 17 17 17 17 17 17 17
17 16 17 18 17 16 17 17 16 16 16 18 20 18 21 18 16 19 20 19 17 18 18 18 18 18 18 17 18 17 17 17 17
17 16 17 17 17 15 17 16 16 16 16 17 20 22 20 20 19 21 21 17 18 18 18 17 17 17 16 17 17 17 16 16 15
18 16 17 17 16 16 17 16 15 15 16 20 20 21 18 19 18 20 21 17 17 17 17 17 17 17 17 17 17 16 16 16 15
18 16 16 16 16 16 16 16 16 15 17 20 19 19 19 13 17 22 18 16 16 17 17 17 17 17 17 17 17 16 16 16 16
18 17 17 15 15 15 15 18 19 17 17 19 13 15 15 11 20 19 15 16 16 16 17 17 16 17 16 16 16 16 16 15 15
19 19 17 15 15 15 16 17 15 10 10 11 13 13 13 12 17 15 15 15 14 15 16 16 16 16 16 16 16 15 15 15 16
22 20 18 18 15 14 13 10 12 11 9 10 12 12 10 8 11 12 13 13 12 13 14 15 15 16 16 16 16 16 16 16 15
19 16 15 14 13 12 10 11 11 11 10 8 11 11 10 5 6 8 8 11 10 11 12 14 15 15 15 15 15 15 16 16 15
18 16 15 14 13 11 11 11 9 9 8 8 9 9 8 7 2 4 6 7 7 9 11 12 13 13 13 13 14 14 15 15 15
20 20 17 17 15 13 12 10 9 9 7 7 7 6 5 6 3 2 4 5 5 5 7 11 11 12 12 14 14 14 15 15 15
23 22 21 18 16 15 13 11 9 8 7 5 6 4 2 3 4 2 3 6 5 7 6 9 11 12 13 13 13 14 14 15 16
25 23 20 18 16 14 12 10 9 8 7 5 4 2 0 3 3 3 1 4 5 5 5 9 12 10 12 12 13 13 14 15 16
26 23 21 20 17 15 13 13 9 8 6 7 2 2 2 2 3 4 4 7 7 6 8 11 13 11 12 13 13 13 14 16 17
26 24 23 21 19 17 14 12 11 8 5 6 3 2 3 6 6 7 7 7 10 7 12 13 13 15 12 14 13 14 15 16 17
28 26 25 22 20 18 16 13 11 6 4 7 4 2 3 5 5 9 7 8 9 9 11 14 15 16 15 14 14 15 15 16 19
31 30 27 24 22 19 17 15 13 6 4 5 5 1 2 7 9 10 10 11 10 9 11 14 15 16 17 18 15 15 16 17 20
33 29 28 26 23 22 19 15 12 10 7 4 5 2 2 2 8 12 11 10 9 11 14 14 14 17 17 16 17 17 18 20 22
34 30 29 27 24 22 20 16 14 12 12 7 5 4 3 2 3 7 11 10 11 13 14 16 17 17 13 15 18 19 19 22 25
35 33 31 28 25 23 21 19 16 14 13 11 7 5 3 2 2 3 4 7 12 11 16 15 16 11 13 17 21 18 22 24 26
Wind_Direction
118 115 111 108 103 100 97 87 82 81 85 91 90 89 95 95 90 85 77 70 62 58 56 56 53 51 50 50 51 51 50 46 46
120 118 114 110 106 103 95 91 87 86 89 93 93 88 98 90 92 87 75 69 66 63 60 57 56 51 49 48 49 48 47 45 43
123 119 116 111 107 105 96 92 88 86 90 99 101 100 95 89 83 85 78 69 67 64 61 58 55 51 47 45 44 44 43 41 39
126 122 118 112 109 104 98 95 92 92 93 99 102 104 104 104 98 91 82 74 68 65 61 56 52 50 45 43 38 37 36 36 35
127 126 118 118 114 106 105 102 98 96 97 94 90 97 95 99 94 86 83 75 70 67 62 59 53 49 45 40 36 34 34 32 29
136 131 122 116 117 110 108 103 92 81 93 96 94 106 100 101 97 90 84 76 72 67 63 58 52 48 43 37 32 28 27 26 23
151 136 122 125 117 116 108 91 80 73 74 88 104 94 105 96 102 92 81 79 72 70 63 56 49 44 40 34 28 23 19 20 17
156 143 138 124 111 107 96 114 122 117 103 103 102 100 102 99 109 94 81 80 73 67 61 52 44 38 32 26 20 17 12 14 12
153 144 140 126 128 130 132 120 116 119 121 106 102 109 111 91 99 98 82 85 77 67 58 49 41 34 27 20 14 11 6 6 4
151 161 147 143 140 137 125 120 114 111 113 109 98 103 116 122 93 91 75 82 78 62 51 40 34 29 23 17 10 5 2 359 358
172 159 159 153 155 144 138 137 131 121 107 100 93 101 119 131 141 82 36 44 53 32 39 30 23 21 18 12 4 359 357 354 354
174 166 165 163 161 151 147 140 126 113 97 81 85 94 107 133 166 167 4 14 13 6 27 13 9 9 11 5 357 353 350 349 349
176 170 167 162 153 145 139 134 137 119 115 83 44 25 48 192 201 229 261 342 343 359 353 352 355 0 359 357 350 347 343 343 342
177 173 171 161 155 153 153 156 154 134 132 128 154 236 274 257 234 253 266 322 332 334 338 338 344 348 350 349 343 339 337 337 337
176 179 172 164 162 159 158 163 155 151 146 131 151 260 246 236 225 240 259 301 314 320 332 334 336 336 341 341 335 330 331 331 331
180 184 174 170 172 167 166 164 145 132 122 120 138 244 268 247 243 237 248 259 288 303 324 329 326 329 332 329 326 325 324 324 325
187 187 176 176 173 171 175 170 152 137 117 117 114 87 260 244 230 227 236 252 266 297 316 317 322 326 326 329 323 322 319 316 320
190 187 182 180 183 179 181 176 169 148 121 133 130 100 214 298 208 231 248 259 273 307 314 316 320 324 323 324 327 322 315 312 315
193 188 188 186 186 184 181 180 177 167 148 138 141 147 139 143 321 239 249 267 281 305 288 305 314 320 321 325 324 318 315 314 314
192 190 191 188 189 187 184 182 178 170 167 159 156 160 150 183 219 291 286 239 282 267 289 298 305 318 332 332 327 320 313 312 311
Height
828 830 830 831 833 834 835 833 836 836 838 839 842 841 843 841 843 843 846 848 849 850 851 850 851 851 851 850 849 848 848 848 848
828 831 831 832 835 836 834 836 837 837 840 841 842 846 844 845 845 845 848 850 851 851 852 853 852 854 854 853 851 850 849 849 849
830 832 833 836 836 839 836 838 840 840 841 842 844 843 846 848 847 847 849 853 853 853 854 855 855 855 855 855 854 852 851 850 850
830 835 836 836 839 840 839 840 841 843 843 844 845 845 845 847 848 850 851 854 855 855 855 856 856 856 856 856 855 854 853 851 850
831 836 836 838 839 840 841 841 842 844 845 848 851 848 847 848 850 851 853 855 856 856 857 857 857 857 856 857 856 855 854 853 852
832 836 836 839 840 841 843 843 845 847 848 847 852 849 849 850 851 853 855 855 857 857 857 857 858 856 857 857 857 857 855 854 853
830 835 834 840 840 841 844 845 846 849 851 852 852 852 850 851 853 854 855 856 857 857 856 857 857 856 857 857 857 857 856 854 852
831 830 835 838 840 843 844 845 847 849 852 850 851 853 853 852 854 856 855 856 857 857 855 855 856 855 856 857 857 856 856 854 852
829 832 835 837 840 843 844 846 848 849 852 853 850 852 855 854 856 856 856 856 858 857 856 855 855 855 856 856 856 856 856 854 852
829 833 835 837 841 843 844 847 849 850 852 853 852 853 856 856 857 858 857 856 857 857 856 855 855 855 856 856 857 856 855 854 852
831 830 833 836 839 840 844 848 848 850 851 852 853 855 857 858 858 858 859 857 857 857 856 856 856 855 854 855 856 855 854 853 851
828 828 832 834 838 839 843 847 849 850 851 853 852 855 858 859 859 860 860 859 857 857 855 856 855 853 852 853 854 853 853 851 849
824 827 830 833 837 839 843 847 850 849 851 852 854 855 857 859 859 860 861 861 858 857 857 855 854 852 851 851 852 851 850 849 847
822 825 829 830 835 838 841 845 847 847 849 849 853 855 857 858 859 860 861 860 859 857 855 853 853 852 850 850 849 850 849 847 845
819 824 827 828 833 835 840 845 845 845 846 847 851 854 856 858 858 859 859 859 858 856 854 853 851 850 849 847 848 848 847 845 844
817 822 824 826 830 834 837 841 842 846 845 846 849 854 855 856 857 858 858 857 857 855 853 852 850 848 847 846 846 846 845 844 842
812 818 819 823 827 831 836 838 839 843 845 845 847 854 855 855 855 857 857 855 855 853 851 850 848 847 846 844 844 843 842 841 839
807 813 816 820 824 827 832 835 837 838 842 845 845 852 856 855 854 855 855 853 852 851 849 849 847 845 843 843 841 840 839 837 835
805 807 814 817 821 825 828 833 835 834 837 843 845 848 850 855 856 852 852 851 851 849 848 847 845 843 842 840 839 837 835 834 831
800 803 810 813 819 823 825 829 832 832 835 837 843 846 848 852 856 855 850 850 848 847 845 844 843 841 839 838 836 834 832 830 827